BREEZE-KM DEB, 41718

Orbit data source: Space-Track

BREEZE-KM DEB, 41718 is space debris in LEO originally from a launch on Tue, 31 Mar 2015 UTC launched from the Plesetsk Missile And Space Complex (PKMTR). Debris objects in space refer to the collection of defunct objects orbiting the Earth. Examples of debris include non-operational satellites, rocket bodies, and fragments generated from explosions, collisions, or faulty payload assembly.

Loading next visibility...
Identifier
41718, 2015-020F
Orbit
LEO
Country
Flag of CISCIS
Related business
Manufacturer
Khrunichev
Mission
Spacecraft
Bus & Motor
Unknown
Mass
Unknown
Launch date (UTC)
2015-03-31 (11 years ago)
Launch vehicle
Unknown
Launch site
Plesetsk Missile And Space Complex (PKMTR)
Object type
Payload
Rocket body
Debris
Shape & HBR
Unknown shape, 0.1 m
Radar Cross Section
Medium (>0.1 m² and <1 m²)

Expand to show TLE details & history
Last TLE update: 1 day ago

TLE from 1 day ago
0 BREEZE-KM DEB
1 41718U 15020F   26236.35253838  .00000079  00000-0  21913-3 0  9990
2 41718  82.4866 105.9399 0229574  72.4510 290.1537 12.91316387528688
Epoch: 2026-08-24T08:27Z
TLE epoch observation values (Epoch: 2026-08-24T08:27:39.316Z)
Latitude
-0.00001°
Longitude
6.39061°
Altitude
1,241.967 km
Speed
7.261 km/s
True Right ascension
07h 03m 45s
True Declination
0° 00' 00"
Sunlit
Object was in daylight at epoch
Visualization orbit readout
Latitude
Unknown
Longitude
Unknown
Altitude
Unknown
Speed
Unknown
Apparent Right ascension
Unknown
Apparent Declination
Unknown
Sunlit
N/A
Visualization observer readout
Local Sidereal Time
11:19:49
Azimuth
Unknown
Elevation
Unknown
Doppler factor
Unknown
Orbital elements
Apogee altitude
1,469.708 km
Perigee altitude
1,117.462 km
Semi-major axis
7,671.722 km
Eccentricity
0.02296
Inclination
82.4866°
RAAN
105.9399°
Arg. of periapsis
72.451°
True anomaly
287.66019°
Mean anomaly
290.1537°
Eccentric anomaly
288.90932°
Mean motion
3.23001 °/min
Orbital period
111.45 mins
BSTAR
0.00021913
Loading maneuver chart data...
Computing Atmospheric mass density...
Loading historical data...
Loading historical data...
Loading historical data...
Loading historical data...
Loading historical data...
Loading historical data...
Loading historical data...

Documentation

Showing up to 5 results
|